Location: Wellington
(41.3000°S, 174.7830°E)
Time: 08:33:02
(UTC+13:00)

SL-08 R/B - Pass Details

Date: 24 January 2019
Orbit: 946 x 994 km, 83.0° (Epoch: 17 February)

Event Time Altitude Azimuth Distance (km) Brightness Sun altitude
Exits shadow 22:39:26 15° 358° (N) 2,341 6.1 -17.4°
Maximum altitude 22:44:39 84° 83° (E) 972 4.4 -18.0°
Drops below altitude 10° 22:50:54 10° 171° (S) 2,725 7.4 -18.8°
Sets 22:53:26 0° 171° (S) 3,685 8.1 -19.1°
